Powrót do katalogu

STARLINK-30408

AktywnyŁącznośćVLEO
NORAD 57824·PAYLOAD·🇺🇸 United States

Wystrzelony Sep 9, 2023 z Cape Canaveral Space Force Station

Loading…

Następne Przeloty (najbliższe 24 godziny)

TLE

ŚwieżeSource: CelesTrak SupGP

Epoka: Sep 15, 2026, 02:31 UTC

1 57824C 23138S   26258.10534722 -.00018518  00000+0 -67079-3 0  2584
2 57824  42.9996 244.2375 0001176 261.4818 313.1691 15.27585110    19

Śledź STARLINK-30408 w czasie rzeczywistym z AllMySat

Download on the App Store